This is the latest recevied weather packets stored in our database for station/object DL6MAA-11. If no packets are shown the sender has not sent any weather packets the latest 1 day(s).
| Time | Temp. | Humidity | Pressure | Rain* | Wind** | Luminosity | Snow |
|---|---|---|---|---|---|---|---|
| 1777982815 | 19.44° C | 55% | 1004.7 hPa | 0 mm | 3.13 m/s, 274° | 111 W/m² | - |
| 1777982520 | 19.44° C | 54% | 1004.7 hPa | 0 mm | 2.68 m/s, 269° | 137 W/m² | - |
| 1777982225 | 20° C | 55% | 1004.6 hPa | 0 mm | 2.68 m/s, 302° | 178 W/m² | - |
| 1777981927 | 20° C | 55% | 1004.6 hPa | 0 mm | 2.24 m/s, 275° | 207 W/m² | - |
| 1777981630 | 20.56° C | 54% | 1004.6 hPa | 0 mm | 1.34 m/s, 360° | 225 W/m² | - |
| 1777981316 | 20° C | 53% | 1004.6 hPa | 0 mm | 1.34 m/s, 280° | 264 W/m² | - |
| 1777981021 | 20° C | 50% | 1004.6 hPa | 0 mm | 1.79 m/s, 268° | 250 W/m² | - |
| 1777980709 | 20.56° C | 51% | 1004.6 hPa | 0 mm | 1.79 m/s, 267° | 251 W/m² | - |
| 1777980414 | 20.56° C | 50% | 1004.6 hPa | 0 mm | 0.89 m/s, 283° | 250 W/m² | - |
| 1777980116 | 20.56° C | 51% | 1004.6 hPa | 0 mm | 0 m/s | 308 W/m² | - |
| 1777979827 | 20.56° C | 52% | 1004.6 hPa | 0 mm | 0.45 m/s, 317° | 264 W/m² | - |
| 1777979515 | 20.56° C | 51% | 1004.4 hPa | 0 mm | 0.45 m/s, 281° | 287 W/m² | - |
| 1777979224 | 20.56° C | 52% | 1004.4 hPa | 0 mm | 0 m/s | 357 W/m² | - |
| 1777978927 | 21.11° C | 53% | 1004.4 hPa | 0 mm | 0 m/s | 341 W/m² | - |
| 1777978613 | 20.56° C | 50% | 1004.6 hPa | 0 mm | 0 m/s | 552 W/m² | - |
| 1777978321 | 21.11° C | 52% | 1004.6 hPa | 0 mm | 0 m/s | 401 W/m² | - |
| 1777978021 | 20.56° C | 52% | 1004.6 hPa | 0 mm | 0 m/s | 649 W/m² | - |
| 1777977726 | 19.44° C | 56% | 1005.1 hPa | 0 mm | 0 m/s | 473 W/m² | - |
| 1777977412 | 19.44° C | 54% | 1005.1 hPa | 0 mm | 0 m/s | 250 W/m² | - |
| 1777977121 | 19.44° C | 56% | 1005.1 hPa | 0 mm | 0 m/s | 239 W/m² | - |
| 1777976822 | 19.44° C | 55% | 1005 hPa | 0 mm | 0 m/s | 258 W/m² | - |
| 1777976523 | 19.44° C | 54% | 1005 hPa | 0 mm | 0 m/s | 271 W/m² | - |
| 1777976229 | 19.44° C | 54% | 1005 hPa | 0 mm | 0 m/s | 322 W/m² | - |
| 1777975917 | 19.44° C | 55% | 1004.9 hPa | 0 mm | 0 m/s | 436 W/m² | - |
| 1777975620 | 19.44° C | 56% | 1004.9 hPa | 0 mm | 0 m/s | 304 W/m² | - |
* Rain since midnight (hover to see other rain measurements)
** Current wind speed in m/s (hover to see current wind gust speed)